Flag for U.S.A. Weather past 2 weeks in Cupertino, California, U.S.A.

Now
49 °F

Clear.


Feels Like: 49 °F
Forecast: 46 / 67 °F
Wind: No wind

Location: Moffett Field

Current Time: Apr 2, 2015 at 3:24:10 AM

Latest Report: Apr 2, 2015 at 2:56 AM


Visibility: 10 mi

Pressure: 30.15 "Hg

Humidity: 66%

Dew point: 38 °F

Location of CupertinoLocation

Historic Weather in Cupertino — Graph

°F

Cupertino temperature yesterday

Maximum temperature yesterday: 65 °F (at 2:56 PM)
Minimum temperature yesterday: 48 °F (at 5:56 AM)
Average temperature yesterday: 56 °F

Past Weeks' High & Low Weather Summary

 TemperatureHumidityPressure
High82 °F (Mar 26, 3:56 PM)90% (Mar 23, 1:56 AM)30.33 "Hg (Mar 23, 1:56 AM)
Low48 °F (Mar 18, 4:56 AM)27% (Mar 19, 12:56 PM)30.00 "Hg (Mar 19, 6:56 PM)
Average60 °F66%30.15 "Hg
* Reported Mar 18 1:56 AM — Apr 2 1:56 AM, Cupertino, Weather by CustomWeather, © 2015

Note: Actual official high and low records may vary slightly from our data, if they occured in-between our weather recording intervals... More about our weather records

Advertising

Cupertino weather history for previous 24 hours

 ConditionsComfort  
Time TempWeatherWind HumidityBarometerVisibility
1:56 AM
Thu, Apr 2
50 °FClear.No wind63%30.15 "Hg10 mi
12:56 AM51 °FClear.No wind61%30.14 "Hg10 mi
11:56 PM
Wed, Apr 1
52 °FClear.No wind57%30.12 "Hg10 mi
10:56 PM53 °FClear.No wind61%30.13 "Hg10 mi
9:56 PM53 °FClear.No wind56%30.12 "Hg10 mi
8:56 PM54 °FClear.No wind55%30.12 "Hg10 mi
7:56 PM56 °FSunny.5 mph53%30.11 "Hg10 mi
6:56 PM58 °FSunny.12 mph50%30.10 "Hg10 mi
5:56 PM60 °FSunny.13 mph44%30.11 "Hg10 mi
4:56 PM62 °FSunny.13 mph43%30.11 "Hg10 mi
3:56 PM64 °FSunny.12 mph40%30.12 "Hg10 mi
2:56 PM65 °FSunny.16 mph39%30.13 "Hg10 mi
1:56 PM63 °FSunny.18 mph45%30.15 "Hg10 mi
12:56 PM64 °FSunny.17 mph35%30.16 "Hg10 mi
11:56 AM62 °FSunny.9 mph38%30.18 "Hg10 mi
10:56 AM60 °FSunny.10 mph38%30.20 "Hg10 mi
9:56 AM58 °FSunny.9 mph51%30.21 "Hg10 mi
8:56 AM55 °FSunny.5 mph49%30.21 "Hg10 mi
7:56 AM51 °FSunny.3 mph52%30.20 "Hg10 mi
6:56 AM49 °FClear.5 mph52%30.19 "Hg10 mi
5:56 AM48 °FClear.No wind54%30.19 "Hg10 mi
4:56 AM50 °FClear.3 mph54%30.19 "Hg10 mi
3:56 AM49 °FClear.No wind59%30.19 "Hg10 mi
Weather by CustomWeather, © 2015

See weather overviewHow to use our weather pages